N4XWC Weather Reports


Display with metric or nautical units.
time (UTC)temp
F
wind
direction
speed
MPH
gust
MPH
rain 1hr
in
rain 24hr
in
rain mn
in
humidity
%
barometer
mb
20260503032508 56 0 2.0 3.0 0.00 0.00 0.00 59 1017.9
20260503032213 56 0 2.0 2.0 0.00 0.00 0.00 59 1017.9
20260503032007 56 350 0.0 2.0 0.00 0.00 0.00 59 1017.9
20260503031508 56 356 1.0 2.0 0.00 0.00 0.00 58 1017.9
20260503031215 56 350 1.0 2.0 0.00 0.00 0.00 58 1017.9
20260503031008 56 344 1.0 2.0 0.00 0.00 0.00 58 1017.9
20260503030508 56 0 0.0 1.0 0.00 0.00 0.00 58 1017.9
20260503030214 56 0 1.0 1.0 0.00 0.00 0.00 58 1017.9
20260503030008 56 0 1.0 2.0 0.00 0.00 0.00 57 1017.9
20260503025509 56 0 1.0 3.0 0.00 0.00 0.00 57 1017.7
20260503025214 56 359 3.0 3.0 0.00 0.00 0.00 57 1017.7
20260503025008 56 7 3.0 4.0 0.00 0.00 0.00 57 1017.7
20260503024507 56 359 2.0 4.0 0.00 0.00 0.00 57 1017.7
20260503024215 56 8 1.0 4.0 0.00 0.00 0.00 57 1017.6
20260503024008 56 0 2.0 3.0 0.00 0.00 0.00 57 1017.6
20260503023508 57 1 2.0 3.0 0.00 0.00 0.00 58 1017.6
20260503023214 57 359 2.0 2.0 0.00 0.00 0.00 57 1017.6
20260503023009 57 359 0.0 1.0 0.00 0.00 0.00 57 1017.6
20260503022507 57 359 0.0 1.0 0.00 0.00 0.00 56 1017.4
20260503022215 57 0 1.0 2.0 0.00 0.00 0.00 56 1017.4
20260503022008 57 0 0.0 2.0 0.00 0.00 0.00 56 1017.4
20260503021508 57 0 2.0 4.0 0.00 0.00 0.00 55 1017.4
20260503021214 57 0 4.0 4.0 0.00 0.00 0.00 56 1017.2
20260503021009 57 3 2.0 3.0 0.00 0.00 0.00 56 1017.2
20260503020507 57 4 0.0 3.0 0.00 0.00 0.00 54 1017.2
20260503020214 57 342 1.0 5.0 0.00 0.00 0.00 54 1017.2
20260503020008 57 343 0.0 4.0 0.00 0.00 0.00 55 1017.2
20260503015508 57 336 3.0 3.0 0.00 0.00 0.00 55 1017.0
20260503015213 57 350 3.0 3.0 0.00 0.00 0.00 55 1017.0
20260503015009 57 0 2.0 2.0 0.00 0.00 0.00 55 1017.0
20260503014507 57 332 1.0 2.0 0.00 0.00 0.00 55 1017.0
20260503014215 57 350 2.0 3.0 0.00 0.00 0.00 55 1016.9
20260503014007 57 340 2.0 2.0 0.00 0.00 0.00 55 1016.9
20260503013509 57 336 1.0 1.0 0.00 0.00 0.00 55 1016.9
20260503013215 58 342 1.0 2.0 0.00 0.00 0.00 55 1016.9
20260503013009 58 304 3.0 3.0 0.00 0.00 0.00 54 1016.9
20260503012508 58 294 3.0 5.0 0.00 0.00 0.00 54 1016.7
20260503012214 58 336 2.0 4.0 0.00 0.00 0.00 54 1016.7
20260503012009 58 356 0.0 2.0 0.00 0.00 0.00 53 1016.7
20260503011508 58 328 0.0 4.0 0.00 0.00 0.00 53 1016.7
20260503011214 58 312 1.0 2.0 0.00 0.00 0.00 53 1016.6
20260503011009 58 0 1.0 2.0 0.00 0.00 0.00 52 1016.6
20260503010508 58 323 3.0 4.0 0.00 0.00 0.00 52 1016.6
20260503010216 59 339 1.0 3.0 0.00 0.00 0.00 52 1016.6
20260503010009 59 342 1.0 3.0 0.00 0.00 0.00 52 1016.6
20260503005509 59 323 1.0 2.0 0.00 0.00 0.00 51 1016.5
20260503005213 59 333 3.0 3.0 0.00 0.00 0.00 51 1016.5
20260503005008 59 347 1.0 2.0 0.00 0.00 0.00 51 1016.5
20260503004507 60 357 3.0 3.0 0.00 0.00 0.00 50 1016.5
20260503004215 60 340 3.0 3.0 0.00 0.00 0.00 50 1016.2
20260503004008 60 337 2.0 3.0 0.00 0.00 0.00 50 1016.2
20260503003509 60 359 2.0 2.0 0.00 0.00 0.00 50 1016.2
20260503003214 60 308 1.0 2.0 0.00 0.00 0.00 50 1016.2
20260503003008 61 349 0.0 2.0 0.00 0.00 0.00 50 1016.2
20260503002508 61 340 1.0 2.0 0.00 0.00 0.00 48 1015.9
20260503002216 61 347 0.0 1.0 0.00 0.00 0.00 48 1015.9
20260503002007 61 347 1.0 2.0 0.00 0.00 0.00 47 1015.9
20260503001509 62 353 0.0 0.0 0.00 0.00 0.00 45 1015.9
20260503001214 62 56 1.0 1.0 0.00 0.00 0.00 45 1015.7
20260503001008 62 349 0.0 0.0 0.00 0.00 0.00 45 1015.7
20260503000508 62 340 1.0 2.0 0.00 0.00 0.00 45 1015.7
20260503000215 62 4 1.0 4.0 0.00 0.00 0.00 45 1015.7
20260503000008 62 0 3.0 3.0 0.00 0.00 0.00 45 1015.7
20260502235509 62 330 5.0 7.0 0.00 0.00 0.00 44 1015.6
20260502235215 63 71 0.0 2.0 0.00 0.00 0.00 44 1015.6
20260502235009 63 354 5.0 10.0 0.00 0.00 0.00 45 1015.6
20260502234507 63 337 2.0 4.0 0.00 0.00 0.00 43 1015.6
20260502234216 63 0 2.0 6.0 0.00 0.00 0.00 43 1015.5
20260502234007 63 357 3.0 3.0 0.00 0.00 0.00 43 1015.5
20260502233508 63 319 6.0 6.0 0.00 0.00 0.00 42 1015.5
20260502233215 63 330 3.0 5.0 0.00 0.00 0.00 42 1015.5
20260502233012 63 342 2.0 9.0 0.00 0.00 0.00 41 1015.5
20260502232507 64 342 4.0 5.0 0.00 0.00 0.00 42 1015.4
20260502232214 64 295 5.0 5.0 0.00 0.00 0.00 41 1015.4
20260502232009 64 299 2.0 4.0 0.00 0.00 0.00 41 1015.4
20260502231509 64 344 5.0 6.0 0.00 0.00 0.00 41 1015.4
20260502231214 64 339 2.0 10.0 0.00 0.00 0.00 40 1015.4
20260502231008 64 6 6.0 9.0 0.00 0.00 0.00 41 1015.4
20260502230512 64 335 2.0 4.0 0.00 0.00 0.00 41 1015.4
20260502230215 64 0 6.0 7.0 0.00 0.00 0.00 42 1015.4
20260502230012 64 342 5.0 5.0 0.00 0.00 0.00 42 1015.4
20260502225511 64 357 1.0 3.0 0.00 0.00 0.00 42 1015.5
20260502225214 64 24 2.0 2.0 0.00 0.00 0.00 41 1015.5
20260502225013 64 7 1.0 5.0 0.00 0.00 0.00 41 1015.5
20260502224512 64 352 5.0 6.0 0.00 0.00 0.00 40 1015.5
20260502224215 64 304 5.0 9.0 0.00 0.00 0.00 40 1015.4
20260502224012 64 0 5.0 6.0 0.00 0.00 0.00 40 1015.4
20260502223512 64 325 4.0 9.0 0.00 0.00 0.00 41 1015.4
20260502223214 64 0 4.0 4.0 0.00 0.00 0.00 41 1015.4
20260502223012 64 359 1.0 9.0 0.00 0.00 0.00 40 1015.4
20260502222513 64 357 1.0 5.0 0.00 0.00 0.00 39 1015.4
20260502222215 64 0 8.0 10.0 0.00 0.00 0.00 38 1015.4
20260502222012 64 352 10.0 10.0 0.00 0.00 0.00 38 1015.4
20260502221511 64 1 3.0 12.0 0.00 0.00 0.00 40 1015.4
20260502221214 64 311 4.0 5.0 0.00 0.00 0.00 40 1015.3
20260502221011 64 58 0.0 1.0 0.00 0.00 0.00 40 1015.3
20260502220512 64 37 7.0 7.0 0.00 0.00 0.00 40 1015.3
20260502220214 64 1 7.0 8.0 0.00 0.00 0.00 41 1015.3
20260502220011 65 52 3.0 3.0 0.00 0.00 0.00 40 1015.3
20260502215300 65 1 6.0 7.0 0.00 0.00 0.00 39 1015.2
20260502215215 65 31 3.0 3.0 0.00 0.00 0.00 39 1015.2
20260502214800 66 233 1.0 2.0 0.00 0.00 0.00 40 1015.2
20260502214301 66 356 2.0 6.0 0.00 0.00 0.00 38 1015.2
20260502214214 66 356 2.0 6.0 0.00 0.00 0.00 38 1015.2
20260502213800 66 3 3.0 10.0 0.00 0.00 0.00 39 1015.2
20260502213301 66 0 6.0 9.0 0.00 0.00 0.00 37 1015.2
20260502213215 66 0 6.0 9.0 0.00 0.00 0.00 37 1015.2
20260502212800 66 330 4.0 6.0 0.00 0.00 0.00 40 1015.2
20260502212304 66 59 3.0 5.0 0.00 0.00 0.00 41 1015.2
20260502212214 66 59 3.0 5.0 0.00 0.00 0.00 41 1015.2
20260502211801 66 292 6.0 10.0 0.00 0.00 0.00 40 1015.2
20260502211300 66 27 2.0 9.0 0.00 0.00 0.00 39 1015.3
20260502211214 66 27 2.0 9.0 0.00 0.00 0.00 39 1015.3
20260502210800 66 311 5.0 9.0 0.00 0.00 0.00 40 1015.3
20260502210301 66 23 3.0 7.0 0.00 0.00 0.00 38 1015.3
20260502210214 66 23 3.0 7.0 0.00 0.00 0.00 38 1015.3
20260502205800 66 350 9.0 10.0 0.00 0.00 0.00 38 1015.2
20260502205300 66 1 5.0 10.0 0.00 0.00 0.00 38 1015.2
20260502205214 66 1 5.0 10.0 0.00 0.00 0.00 38 1015.2
20260502204802 66 343 9.0 10.0 0.00 0.00 0.00 41 1015.2
20260502204301 66 313 3.0 8.0 0.00 0.00 0.00 40 1015.4
20260502204213 66 313 3.0 8.0 0.00 0.00 0.00 40 1015.4
20260502203800 66 0 8.0 9.0 0.00 0.00 0.00 39 1015.4
20260502203301 66 325 9.0 10.0 0.00 0.00 0.00 40 1015.4
20260502203216 66 325 9.0 10.0 0.00 0.00 0.00 40 1015.4
20260502202801 66 17 4.0 12.0 0.00 0.00 0.00 40 1015.3
20260502202300 66 68 0.0 7.0 0.00 0.00 0.00 40 1015.3
20260502202215 66 68 0.0 7.0 0.00 0.00 0.00 40 1015.3
20260502201801 66 3 9.0 10.0 0.00 0.00 0.00 40 1015.3
20260502201301 66 322 6.0 10.0 0.00 0.00 0.00 40 1015.4
20260502201214 66 322 6.0 10.0 0.00 0.00 0.00 40 1015.4
20260502200802 66 71 5.0 18.0 0.00 0.00 0.00 38 1015.4
20260502200300 66 311 1.0 15.0 0.00 0.00 0.00 41 1015.4
20260502200214 66 311 1.0 15.0 0.00 0.00 0.00 41 1015.4
20260502195800 67 8 10.0 16.0 0.00 0.00 0.00 38 1015.5
20260502195301 67 28 2.0 11.0 0.00 0.00 0.00 38 1015.5
20260502195215 67 28 2.0 11.0 0.00 0.00 0.00 38 1015.5
20260502194802 66 0 9.0 10.0 0.00 0.00 0.00 39 1015.5
20260502194301 66 304 2.0 9.0 0.00 0.00 0.00 39 1015.6
20260502194215 66 304 2.0 9.0 0.00 0.00 0.00 39 1015.6
20260502193801 66 4 4.0 7.0 0.00 0.00 0.00 38 1015.6
20260502193301 66 32 5.0 9.0 0.00 0.00 0.00 40 1015.6
20260502193216 66 32 5.0 9.0 0.00 0.00 0.00 40 1015.6
20260502192802 66 359 10.0 10.0 0.00 0.00 0.00 38 1015.5
20260502192304 66 332 16.0 16.0 0.00 0.00 0.00 39 1015.5
20260502192215 66 332 16.0 16.0 0.00 0.00 0.00 39 1015.5
20260502191801 66 316 4.0 10.0 0.00 0.00 0.00 37 1015.5
20260502191300 66 31 9.0 15.0 0.00 0.00 0.00 36 1015.6
20260502191214 66 31 9.0 15.0 0.00 0.00 0.00 36 1015.6
20260502190801 66 56 2.0 10.0 0.00 0.00 0.00 37 1015.6
20260502190300 66 73 5.0 7.0 0.00 0.00 0.00 36 1015.6
20260502190215 66 73 5.0 7.0 0.00 0.00 0.00 36 1015.6
20260502185801 66 330 0.0 10.0 0.00 0.00 0.00 36 1015.7
20260502185301 66 18 4.0 10.0 0.00 0.00 0.00 36 1015.7
20260502185214 66 18 4.0 10.0 0.00 0.00 0.00 36 1015.7
20260502184800 66 328 9.0 9.0 0.00 0.00 0.00 38 1015.7
20260502184302 66 4 6.0 11.0 0.00 0.00 0.00 36 1016.0
20260502184214 66 10 1.0 1.0 0.00 0.00 0.00 36 1016.0
20260502183801 66 44 3.0 10.0 0.00 0.00 0.00 35 1016.0
20260502183302 66 25 6.0 11.0 0.00 0.00 0.00 34 1016.0
20260502183213 66 25 6.0 11.0 0.00 0.00 0.00 34 1016.0
20260502182800 66 344 5.0 7.0 0.00 0.00 0.00 35 1015.9
20260502182300 66 323 6.0 10.0 0.00 0.00 0.00 38 1015.9
20260502182215 66 323 6.0 10.0 0.00 0.00 0.00 38 1015.9
20260502181800 66 0 6.0 14.0 0.00 0.00 0.00 34 1015.9
20260502181301 66 38 3.0 4.0 0.00 0.00 0.00 36 1015.9
20260502181214 66 38 3.0 4.0 0.00 0.00 0.00 36 1015.9
20260502180800 65 312 7.0 10.0 0.00 0.00 0.00 40 1015.9
20260502180301 65 93 0.0 7.0 0.00 0.00 0.00 39 1015.9
20260502180214 65 93 0.0 7.0 0.00 0.00 0.00 39 1015.9
20260502170301 63 308 5.0 10.0 0.00 0.00 0.00 46 1016.5
20260502170214 63 308 5.0 10.0 0.00 0.00 0.00 46 1016.5
20260502164301 62 350 10.0 10.0 0.00 0.00 0.00 45 1016.7
20260502164214 62 350 10.0 10.0 0.00 0.00 0.00 45 1016.7
20260502163801 62 48 1.0 8.0 0.00 0.00 0.00 47 1016.7
20260502163300 62 325 9.0 11.0 0.00 0.00 0.00 50 1016.7
20260502163214 62 325 9.0 11.0 0.00 0.00 0.00 50 1016.7
20260502162801 61 80 0.0 5.0 0.00 0.00 0.00 53 1016.8
20260502162301 61 347 9.0 9.0 0.00 0.00 0.00 51 1016.8
20260502162214 61 347 9.0 9.0 0.00 0.00 0.00 51 1016.8
20260502161800 60 336 4.0 10.0 0.00 0.00 0.00 51 1016.8
20260502161301 60 16 1.0 8.0 0.00 0.00 0.00 52 1016.9
20260502161215 60 16 1.0 8.0 0.00 0.00 0.00 52 1016.9
20260502160800 59 112 4.0 8.0 0.00 0.00 0.00 53 1016.9
20260502160302 59 6 7.0 10.0 0.00 0.00 0.00 52 1016.9
20260502160213 59 18 9.0 10.0 0.00 0.00 0.00 52 1016.9
20260502152305 56 8 11.0 11.0 0.00 0.00 0.00 61 1016.6
20260502152221 56 337 7.0 7.0 0.00 0.00 0.00 61 1016.6
20260502151801 56 48 3.0 10.0 0.00 0.00 0.00 61 1016.6
20260502151301 56 27 9.0 9.0 0.00 0.00 0.00 60 1016.5
20260502151215 56 27 9.0 9.0 0.00 0.00 0.00 60 1016.5
20260502150801 56 69 6.0 11.0 0.00 0.00 0.00 63 1016.5
20260502150302 56 24 3.0 5.0 0.00 0.00 0.00 65 1016.5
20260502150214 56 316 4.0 10.0 0.00 0.00 0.00 66 1016.5
20260502130301 51 6 2.0 3.0 0.00 0.00 0.00 74 1015.2
20260502130217 51 342 2.0 7.0 0.00 0.00 0.00 74 1015.2
20260502123540 52 17 2.0 7.0 0.00 0.00 0.00 69 1015.0
20260502123215 52 24 3.0 9.0 0.00 0.00 0.00 68 1015.0
20260502123041 52 343 3.0 9.0 0.00 0.00 0.00 68 1015.0
20260502122540 52 359 3.0 6.0 0.00 0.00 0.00 68 1014.9
20260502122213 52 357 4.0 10.0 0.00 0.00 0.00 68 1014.9
20260502122041 52 40 3.0 6.0 0.00 0.00 0.00 68 1014.9
20260502121540 52 1 1.0 6.0 0.00 0.00 0.00 68 1014.9
20260502121215 52 13 3.0 7.0 0.00 0.00 0.00 68 1014.7
20260502121041 52 357 4.0 12.0 0.00 0.00 0.00 67 1014.7
20260502120542 52 24 2.0 4.0 0.00 0.00 0.00 66 1014.7
20260502120214 52 8 1.0 5.0 0.00 0.00 0.00 67 1014.7
20260502115540 52 30 1.0 2.0 0.00 0.00 0.00 66 1014.8
20260502115215 52 40 2.0 4.0 0.00 0.00 0.00 66 1014.8
20260502115040 52 8 2.0 4.0 0.00 0.00 0.00 66 1014.8
20260502114541 52 18 4.0 6.0 0.00 0.00 0.00 65 1014.8
20260502114213 52 13 7.0 10.0 0.00 0.00 0.00 65 1014.8
20260502114041 52 42 4.0 6.0 0.00 0.00 0.00 65 1014.8
20260502113541 52 7 6.0 6.0 0.00 0.00 0.00 65 1014.8
20260502113215 52 28 3.0 6.0 0.00 0.00 0.00 65 1014.8
20260502113040 52 21 3.0 5.0 0.00 0.00 0.00 65 1014.8
20260502112541 52 32 2.0 5.0 0.00 0.00 0.00 66 1014.4
20260502112213 52 357 0.0 5.0 0.00 0.00 0.00 66 1014.4
20260502112041 52 78 1.0 7.0 0.00 0.00 0.00 66 1014.4
20260502111540 52 342 5.0 7.0 0.00 0.00 0.00 66 1014.4
20260502111215 52 100 1.0 6.0 0.00 0.00 0.00 66 1014.0
20260502111040 52 14 3.0 7.0 0.00 0.00 0.00 66 1014.0
20260502110542 52 357 1.0 3.0 0.00 0.00 0.00 66 1014.0
20260502110214 52 3 3.0 6.0 0.00 0.00 0.00 66 1014.0
20260502110041 52 357 5.0 5.0 0.00 0.00 0.00 65 1014.0
20260502105541 52 1 0.0 1.0 0.00 0.00 0.00 64 1013.8
20260502105213 52 0 4.0 4.0 0.00 0.00 0.00 64 1013.8
20260502105041 52 80 4.0 4.0 0.00 0.00 0.00 64 1013.8
20260502104542 52 1 3.0 3.0 0.00 0.00 0.00 64 1013.8
20260502104214 52 45 3.0 3.0 0.00 0.00 0.00 64 1013.9
20260502104041 52 23 3.0 4.0 0.00 0.00 0.00 63 1013.9
20260502103541 53 99 0.0 0.0 0.00 0.00 0.00 63 1013.9
20260502103213 53 7 5.0 6.0 0.00 0.00 0.00 63 1013.9
20260502103041 53 24 2.0 5.0 0.00 0.00 0.00 64 1013.9
20260502102541 53 30 2.0 5.0 0.00 0.00 0.00 63 1014.3
20260502102213 53 7 5.0 5.0 0.00 0.00 0.00 64 1014.3
20260502102041 53 0 0.0 2.0 0.00 0.00 0.00 64 1014.3
20260502101540 53 7 0.0 1.0 0.00 0.00 0.00 63 1014.3
20260502101215 53 34 0.0 2.0 0.00 0.00 0.00 63 1014.1
20260502101040 53 21 2.0 4.0 0.00 0.00 0.00 63 1014.1
20260502100541 53 17 4.0 5.0 0.00 0.00 0.00 62 1014.1
20260502100216 53 54 5.0 6.0 0.00 0.00 0.00 62 1014.1
20260502091359 53 47 2.0 6.0 0.00 0.00 0.00 62 1014.1
20260502091213 53 47 2.0 6.0 0.00 0.00 0.00 62 1014.1
20260502091042 53 1 2.0 2.0 0.00 0.00 0.00 61 1014.1
20260502090540 53 18 9.0 9.0 0.00 0.00 0.00 62 1014.1
20260502090246 54 332 3.0 6.0 0.00 0.00 0.00 62 1014.1
20260502090214 54 332 3.0 6.0 0.00 0.00 0.00 62 1014.1
20260502071216 55 38 5.0 10.0 0.00 0.00 0.00 62 1014.2
20260502071041 55 352 2.0 5.0 0.00 0.00 0.00 62 1014.2
20260502070540 55 17 4.0 7.0 0.00 0.00 0.00 63 1014.2
20260502070214 55 59 5.0 10.0 0.00 0.00 0.00 64 1014.2
20260502070042 55 21 1.0 2.0 0.00 0.00 0.00 64 1014.2
20260502065541 55 28 5.0 5.0 0.00 0.00 0.00 62 1014.1
20260502065215 56 340 1.0 3.0 0.00 0.00 0.00 61 1014.1
20260502065041 56 61 3.0 6.0 0.00 0.00 0.00 61 1014.1
20260502064541 56 16 1.0 4.0 0.00 0.00 0.00 62 1014.1
20260502064247 56 1 4.0 8.0 0.00 0.00 0.00 61 1014.3
20260502064214 56 1 4.0 8.0 0.00 0.00 0.00 61 1014.3
20260502064042 56 1 8.0 9.0 0.00 0.00 0.00 62 1014.3
20260502063541 56 4 9.0 9.0 0.00 0.00 0.00 63 1014.3
20260502063215 56 8 4.0 5.0 0.00 0.00 0.00 63 1014.3
20260502063040 56 3 2.0 10.0 0.00 0.00 0.00 63 1014.3
20260502062541 56 10 3.0 7.0 0.00 0.00 0.00 64 1014.3
20260502062214 56 359 7.0 7.0 0.00 0.00 0.00 65 1014.3
20260502062042 56 16 1.0 6.0 0.00 0.00 0.00 66 1014.3
20260502061541 56 23 5.0 6.0 0.00 0.00 0.00 68 1014.3
20260502061215 56 25 3.0 7.0 0.00 0.00 0.00 69 1014.4
20260502061041 56 14 3.0 7.0 0.00 0.00 0.00 69 1014.4
20260502060540 56 4 3.0 4.0 0.00 0.00 0.00 70 1014.4
20260502060213 56 1 2.0 5.0 0.00 0.00 0.00 71 1014.4
20260502060042 56 0 0.0 5.0 0.00 0.00 0.00 71 1014.4
20260502055541 56 17 1.0 6.0 0.00 0.00 0.00 74 1014.1
20260502055214 56 17 4.0 5.0 0.00 0.00 0.00 75 1014.1
20260502055040 56 37 0.0 9.0 0.00 0.00 0.00 75 1014.1
20260502054541 56 52 5.0 7.0 0.00 0.00 0.00 77 1014.1
20260502054213 56 1 3.0 6.0 0.00 0.00 0.00 79 1014.0
20260502054042 56 4 5.0 10.0 0.00 0.00 0.00 79 1014.0
20260502053542 56 4 4.0 9.0 0.00 0.00 0.00 80 1014.0
20260502053213 56 13 7.0 7.0 0.00 0.00 0.00 81 1014.0
20260502053041 56 0 2.0 8.0 0.00 0.00 0.00 82 1014.0
20260502052542 56 1 3.0 9.0 0.00 0.00 0.00 82 1013.9
20260502052215 57 6 1.0 3.0 0.00 0.00 0.00 82 1013.9
20260502052040 57 52 4.0 9.0 0.00 0.00 0.00 82 1013.9
20260502051540 57 18 5.0 6.0 0.00 0.00 0.00 82 1013.9
20260502051214 57 6 1.0 4.0 0.00 0.00 0.00 82 1013.9
20260502051041 57 354 5.0 10.0 0.00 0.00 0.00 82 1013.9
20260502050542 57 357 5.0 5.0 0.00 0.00 0.00 82 1013.9
20260502050215 57 8 2.0 7.0 0.00 0.00 0.00 82 1013.9
20260502050040 57 13 3.0 10.0 0.00 0.00 0.00 82 1013.9
20260502045541 57 8 5.0 10.0 0.00 0.00 0.00 83 1013.8
20260502045213 57 35 5.0 5.0 0.00 0.00 0.00 83 1013.8
20260502045040 57 8 6.0 9.0 0.00 0.00 0.00 83 1013.8
20260502044541 57 359 5.0 5.0 0.00 0.00 0.00 83 1013.8
20260502044215 57 32 4.0 9.0 0.00 0.00 0.00 83 1013.6
20260502044040 57 1 4.0 9.0 0.00 0.00 0.00 83 1013.6
20260502043541 57 0 4.0 9.0 0.00 0.00 0.00 83 1013.6
20260502043214 57 335 2.0 4.0 0.00 0.00 0.00 82 1013.6
20260502043042 57 27 4.0 4.0 0.00 0.00 0.00 82 1013.6
20260502042541 57 0 6.0 10.0 0.00 0.00 0.00 82 1013.6
20260502042214 57 357 6.0 6.0 0.00 0.00 0.00 82 1013.6
20260502042040 57 20 7.0 10.0 0.00 0.00 0.00 82 1013.6
20260502041540 57 357 5.0 7.0 0.00 0.00 0.00 82 1013.6
20260502041214 57 325 4.0 8.0 0.00 0.00 0.00 82 1013.8
20260502041040 57 0 1.0 2.0 0.00 0.00 0.00 82 1013.8
20260502040541 57 316 3.0 3.0 0.00 0.00 0.00 82 1013.8
20260502040214 57 343 3.0 4.0 0.00 0.00 0.00 82 1013.8
20260502040042 57 356 4.0 4.0 0.00 0.00 0.00 82 1013.8
20260502035858 58 336 3.0 3.0 0.00 0.00 0.00 80 1013.7
20260502035541 58 16 3.0 3.0 0.00 0.00 0.00 81 1013.7
20260502035214 58 336 3.0 3.0 0.00 0.00 0.00 80 1013.7
20260502035041 58 24 3.0 5.0 0.00 0.00 0.00 80 1013.7
20260502034541 58 344 6.0 7.0 0.00 0.00 0.00 80 1013.7
20260502034215 58 40 3.0 4.0 0.00 0.00 0.00 80 1014.1
20260502034040 58 0 1.0 3.0 0.00 0.00 0.00 79 1014.1
20260502033542 58 14 2.0 4.0 0.00 0.00 0.00 79 1014.1
20260502033216 57 357 2.0 4.0 0.00 0.00 0.00 79 1014.1
20260502033042 57 340 6.0 6.0 0.00 0.00 0.00 80 1014.1